GFSGL_850_spd_273.txt.gz
Wind_Speed
21 18 16 14 12 10 9 9 8 7 7 5 3 2 2 1 2 2 2 1 4 5 7 7 9 10 9 11 13 14 15 18 21 22 20 20 22 21 21 16 20 19 19
22 19 17 15 14 12 11 9 9 6 6 4 4 3 1 1 3 3 2 3 5 6 8 9 10 11 14 15 15 20 19 18 20 23 23 23 21 19 19 16 19 19 20
23 21 19 17 15 14 12 11 8 7 5 4 4 4 3 3 3 4 5 6 7 9 11 12 14 15 16 15 18 20 20 21 24 24 26 22 19 19 16 17 19 18 22
24 22 20 19 17 14 12 10 9 8 7 6 5 5 5 6 5 5 6 8 10 11 14 16 19 20 17 18 19 20 22 22 21 24 27 26 20 19 20 18 22 21 25
25 22 21 18 16 15 13 11 9 9 7 8 7 6 6 7 6 7 8 9 12 16 18 18 20 18 20 19 19 18 19 19 21 22 23 22 23 21 22 20 21 24 25
25 23 21 19 17 15 14 12 10 10 8 8 7 7 7 7 10 14 14 15 17 19 20 19 19 21 12 20 12 21 19 19 21 20 22 20 20 23 20 21 24 23 24
29 25 22 19 17 16 14 11 10 10 9 8 8 9 9 9 13 11 13 17 21 23 23 19 15 14 20 14 18 17 21 22 21 15 19 18 22 23 22 22 19 19 19
26 24 22 20 18 16 14 13 11 9 8 8 8 8 9 9 13 13 15 19 20 21 24 18 10 15 16 19 19 19 20 18 13 14 17 20 20 20 18 15 17 18 20
24 23 22 20 19 16 14 13 11 9 8 8 7 8 9 8 12 17 19 19 18 20 19 14 17 14 15 18 21 19 18 15 14 19 21 19 21 16 14 18 13 18 21
27 23 21 20 18 16 14 12 12 9 7 7 7 8 9 11 13 16 20 20 14 15 14 14 16 12 15 23 24 16 16 16 19 13 13 14 14 15 16 18 20 20 25
27 23 22 20 17 15 13 11 10 9 7 7 7 9 11 12 14 15 13 10 10 11 12 10 4 17 22 21 18 17 16 18 12 12 11 14 13 14 13 13 16 19 20
28 25 22 19 15 15 14 11 10 9 7 8 9 9 10 15 6 8 12 12 13 13 10 9 14 18 16 18 15 14 10 11 13 12 15 18 14 16 16 16 15 17 19
29 26 22 18 16 15 13 12 10 8 9 8 8 8 4 4 6 13 15 14 11 13 8 14 13 11 14 13 15 15 13 11 14 13 15 14 16 16 19 18 18 16 19
30 25 21 19 17 14 12 10 10 7 8 4 8 8 4 3 2 5 10 13 13 14 14 12 10 8 14 11 12 15 10 13 17 14 15 17 16 18 18 17 18 18 16
29 23 21 20 16 15 13 13 7 9 8 3 2 4 2 1 8 14 14 14 13 9 5 8 4 7 15 13 14 12 14 11 15 14 15 16 18 17 18 19 20 20 19
27 23 21 17 16 15 13 14 9 4 8 8 7 5 4 9 11 13 15 9 9 7 7 10 11 10 15 15 16 13 14 16 17 17 14 17 17 19 20 21 22 21 22
25 23 20 16 16 16 13 12 11 10 7 5 5 5 5 8 12 15 8 6 9 10 9 12 13 10 13 15 14 14 15 17 23 9 13 16 18 17 20 20 22 23 24
23 22 19 17 16 15 13 15 12 4 5 6 6 4 6 12 12 15 7 9 13 8 9 13 14 11 12 15 14 13 14 19 17 14 17 18 19 20 21 22 24 26 26
23 21 18 17 16 14 12 10 12 8 10 6 3 5 7 13 10 9 9 9 11 11 12 13 13 12 13 15 15 18 13 15 18 18 19 20 21 23 21 21 25 24 26
21 21 19 18 16 14 11 9 8 8 4 2 4 1 4 11 9 8 9 10 11 11 12 13 12 13 12 12 17 15 15 17 19 20 23 23 22 22 22 23 26 27 25
21 23 20 17 15 13 11 9 8 4 3 2 2 6 5 1 7 8 9 9 10 11 12 12 12 13 14 14 15 17 19 19 19 20 21 23 23 23 23 24 23 24 24
21 22 19 16 14 13 10 9 7 5 3 2 3 3 9 6 7 8 8 9 10 10 11 12 12 13 14 15 16 17 18 19 20 21 24 26 22 22 22 22 23 24 22
22 20 17 15 14 15 11 8 6 4 2 1 1 2 5 6 7 8 9 10 10 11 11 11 12 13 15 15 15 15 17 19 24 27 29 28 27 23 23 21 24 23 21
20 18 16 16 12 12 11 8 5 5 3 1 1 2 4 6 7 8 9 10 10 10 10 11 12 14 16 17 15 15 19 25 26 29 30 31 29 25 19 20 22 23 23
19 17 15 15 14 12 10 7 6 5 4 2 2 2 4 6 7 8 9 9 9 10 11 12 13 15 16 16 17 24 24 26 28 29 30 29 26 17 20 23 23 23 20
18 18 15 15 12 10 9 8 7 6 5 3 2 3 5 6 6 7 9 9 10 10 12 13 14 16 16 15 23 26 27 28 29 29 28 24 17 20 21 21 20 19 16

GFSGL_850_spd_276.txt.gz
Wind_Speed
24 22 21 20 17 15 11 15 14 13 11 7 6 4 3 2 4 5 7 1 2 4 7 8 10 12 8 15 13 14 19 21 22 27 24 22 23 24 23 21 16 18 16
23 23 21 19 18 14 11 11 11 9 9 8 7 5 4 3 5 4 2 2 3 6 7 9 11 12 15 17 17 14 18 22 21 27 28 25 24 24 24 19 19 18 18
26 24 22 20 18 15 15 12 11 9 8 8 7 6 4 4 4 4 5 6 7 8 10 13 16 18 19 21 18 17 19 19 25 23 25 23 25 15 10 16 15 18 16
27 24 22 20 19 16 14 13 11 11 9 8 7 5 5 7 6 5 6 8 10 11 14 18 20 19 21 16 17 18 17 22 20 20 25 21 20 19 18 21 26 21 20
28 26 24 21 18 15 15 13 12 11 10 10 7 7 7 8 8 11 7 10 14 15 17 18 21 20 19 17 13 15 19 20 22 22 22 22 24 26 24 27 25 26 23
27 26 24 21 19 17 16 15 12 12 11 10 9 9 8 6 9 9 13 16 16 18 21 22 22 20 12 11 11 21 20 19 24 25 23 21 20 20 24 25 24 22 26
26 24 23 20 18 17 17 15 14 11 11 11 10 9 9 10 12 13 12 14 18 21 22 22 21 16 14 17 18 20 25 20 21 19 18 18 23 22 25 23 16 16 17
28 26 24 21 19 17 16 15 13 11 12 10 10 10 10 11 12 12 14 16 21 22 22 23 21 14 16 20 20 23 25 20 15 14 15 21 24 22 20 16 16 16 19
30 27 24 23 21 19 18 16 15 11 11 10 10 10 10 9 9 13 17 20 23 18 19 16 11 13 14 17 23 26 20 13 16 16 21 19 16 16 15 17 18 19 22
32 30 28 22 22 20 17 17 15 12 10 10 9 8 8 9 12 14 15 18 12 14 18 16 13 12 16 25 21 19 19 17 18 11 11 11 14 17 16 16 17 19 22
29 30 25 25 22 19 16 17 13 10 10 10 10 10 9 12 13 16 15 11 14 15 13 10 9 17 21 19 18 16 17 16 13 14 15 15 16 15 15 16 19 20 21
31 28 26 22 22 20 18 14 11 11 12 13 11 8 8 10 11 8 7 9 12 13 6 8 15 21 16 17 15 18 19 15 16 15 16 15 16 18 18 19 19 19 20
32 30 26 24 22 20 17 15 13 13 12 9 11 7 5 6 10 5 7 11 14 12 12 14 17 16 12 16 15 17 17 14 18 18 16 16 17 18 18 19 17 19 19
34 29 27 24 21 20 13 15 14 9 10 10 10 4 1 3 5 1 5 11 13 15 16 16 11 9 13 13 15 16 16 17 15 16 21 20 16 19 20 17 21 21 21
33 31 28 24 23 17 18 15 15 15 11 8 4 4 4 8 8 13 19 18 11 8 2 8 7 11 6 11 19 20 20 18 16 21 23 15 18 22 21 21 21 22 23
35 31 29 27 22 21 19 19 11 8 8 8 6 7 6 8 13 18 15 6 8 6 7 11 15 4 11 16 19 18 17 18 22 19 13 16 21 23 22 23 21 23 25
36 32 30 25 24 22 17 17 17 11 8 8 8 8 7 11 15 14 5 4 5 6 11 13 14 11 9 11 24 17 16 15 18 21 16 22 24 23 24 24 22 22 26
32 29 25 23 24 21 20 16 14 16 13 10 7 3 5 12 11 12 11 10 13 14 8 11 14 14 12 12 17 19 22 16 20 19 21 22 24 24 25 24 25 24 26
31 28 28 23 21 20 23 19 15 11 8 4 1 2 3 8 10 8 8 10 12 13 12 13 14 15 13 14 14 15 22 22 21 21 21 24 25 24 24 21 23 23 24
31 29 24 21 20 18 18 20 14 13 10 7 5 4 3 6 13 10 11 10 10 12 13 13 13 15 16 15 15 18 19 24 22 21 23 24 25 25 21 24 25 26 25
31 27 23 20 19 17 18 16 14 12 9 6 3 6 12 3 6 8 9 10 11 12 13 13 13 14 16 16 16 18 21 19 17 20 25 28 28 27 24 22 23 22 23
28 29 23 19 17 14 15 13 10 7 5 4 1 5 9 7 7 7 8 9 9 10 11 12 12 14 16 18 17 17 17 21 26 28 29 30 30 30 27 23 19 19 23
29 25 21 18 16 19 15 12 10 7 5 4 4 5 5 6 7 8 8 9 9 10 10 11 12 14 16 18 16 16 22 30 31 31 33 32 31 28 25 19 15 21 23
27 25 20 21 19 16 16 13 10 9 6 6 3 3 3 5 6 7 8 9 9 9 10 12 13 14 17 16 17 22 29 31 30 30 30 31 29 24 13 18 23 21 23
23 20 24 19 19 18 13 10 9 8 7 6 4 3 4 4 6 6 8 8 8 9 12 12 13 15 14 17 22 27 27 29 30 30 30 26 19 13 20 23 21 23 20
19 21 21 19 17 15 14 11 9 8 7 6 3 3 3 5 6 6 7 9 9 10 12 12 13 15 19 22 25 26 28 31 32 30 25 16 17 20 21 21 19 18 21

GFSGL_850_spd_279.txt.gz
Wind_Speed
23 26 22 22 19 17 14 14 16 17 14 12 7 4 3 2 7 7 4 3 1 3 6 6 10 10 11 13 18 17 15 15 21 22 25 25 19 21 21 17 16 17 17
26 27 24 25 22 19 16 17 14 13 16 12 7 6 5 4 5 6 7 2 6 6 8 10 13 14 16 20 20 19 18 17 21 23 23 21 22 15 13 13 12 13 17
29 26 25 27 23 20 16 15 11 10 10 12 10 8 8 6 5 7 8 8 8 10 10 12 15 19 21 19 20 16 14 16 18 21 21 21 18 23 22 19 19 19 22
30 28 27 27 23 19 15 12 10 9 8 12 8 5 6 7 7 4 3 5 8 11 14 17 20 21 21 20 21 13 17 16 20 20 21 21 21 21 24 23 25 27 24
31 30 29 27 23 19 17 13 11 12 11 8 7 6 7 8 10 10 10 11 12 17 18 19 20 17 20 16 11 14 15 17 22 23 23 21 21 22 21 24 24 24 21
31 31 29 26 23 21 18 15 12 13 12 11 10 8 8 8 6 9 9 12 16 16 19 21 18 20 19 16 13 14 16 18 25 23 21 17 17 20 23 24 22 18 18
33 31 28 25 23 22 19 17 15 15 14 14 11 9 10 10 11 11 12 12 14 17 21 20 21 21 18 14 13 16 20 25 19 14 13 15 19 22 22 22 17 17 17
34 34 30 26 24 22 19 20 17 15 13 12 10 12 11 12 12 13 11 14 16 19 20 20 19 14 12 12 16 23 24 17 12 12 16 18 22 18 16 16 18 19 19
40 37 31 31 27 25 22 20 18 15 11 9 10 9 10 10 9 10 13 15 18 17 18 20 15 9 8 17 22 19 18 16 14 14 16 15 12 12 15 17 18 19 21
42 38 32 28 29 24 20 20 19 14 9 10 8 7 8 9 8 11 13 15 16 13 17 17 11 7 15 18 19 17 18 19 17 13 12 10 12 13 15 16 18 20 21
44 36 31 31 28 23 17 21 18 12 7 11 8 10 12 9 11 14 11 9 11 12 11 11 8 12 17 17 19 18 19 19 15 18 15 12 13 13 15 15 17 20 20
43 37 33 30 23 22 20 20 15 9 12 13 11 9 12 12 13 12 10 9 11 11 8 8 12 16 16 16 17 13 16 16 20 20 17 16 16 15 15 14 16 15 16
42 41 33 29 24 27 24 19 15 13 12 9 14 10 10 8 7 7 10 11 14 13 14 14 15 15 10 12 14 15 14 15 17 20 18 23 17 15 18 16 13 13 13
41 38 30 26 29 26 22 16 15 11 12 12 8 6 7 8 9 10 12 15 15 11 9 3 9 9 9 7 12 16 15 17 16 20 23 16 13 16 18 15 17 16 18
37 31 28 27 28 25 20 14 12 11 8 11 11 9 5 6 6 10 15 9 5 5 4 8 15 5 9 9 16 22 17 17 16 18 16 15 17 19 20 18 19 18 19
36 33 31 29 25 23 18 16 14 9 11 10 7 5 5 5 10 12 5 5 6 8 8 11 13 4 7 12 18 22 19 18 16 17 19 20 21 22 24 23 19 19 21
33 35 32 31 30 22 21 19 16 12 10 7 5 4 3 7 10 12 5 4 7 11 7 8 11 8 11 14 20 19 20 22 20 19 18 20 20 23 24 23 20 20 21
34 32 30 31 27 22 20 17 16 16 14 10 7 4 0 5 6 6 5 5 8 9 7 7 10 15 12 17 21 19 20 21 21 19 19 19 22 24 27 25 19 20 21
38 35 34 30 24 21 20 14 11 12 13 7 4 3 3 4 4 5 7 7 8 8 9 10 12 11 16 12 16 17 18 22 20 19 18 20 27 29 29 23 22 20 19
38 34 31 26 26 23 24 23 17 11 11 8 8 5 5 7 8 6 6 6 6 8 11 12 11 12 13 13 16 20 18 17 20 21 26 30 29 26 25 25 23 20 18
37 31 28 24 25 22 24 25 17 10 13 12 9 3 7 8 5 4 5 8 9 9 11 12 11 12 16 20 23 20 18 22 26 31 33 30 29 27 25 24 20 16 11
34 33 26 25 22 20 26 20 17 17 14 13 6 7 9 5 2 5 6 8 8 8 9 11 11 13 18 22 23 21 23 27 32 33 32 30 29 27 24 19 11 12 16
35 31 24 21 19 26 24 22 18 13 14 12 12 11 6 2 4 7 7 8 8 7 10 12 13 15 19 19 21 23 27 31 30 32 32 30 27 22 14 9 15 16 14
34 28 24 22 29 29 25 20 16 15 14 13 8 4 1 2 4 6 7 8 5 7 11 12 13 16 20 21 24 27 27 27 30 32 31 26 17 11 11 13 15 16 16
32 23 27 31 30 27 22 20 17 15 13 10 7 4 2 2 5 6 5 8 6 6 10 11 13 17 21 23 24 26 28 31 30 30 28 19 14 11 11 16 17 18 18
22 31 30 29 27 24 22 20 16 11 9 6 4 1 4 4 4 8 5 7 8 6 10 12 16 19 22 23 25 28 30 30 29 28 25 20 15 7 12 16 16 19 11

GFSGL_850_spd_285.txt.gz
Wind_Speed
29 28 27 24 22 23 18 13 12 11 12 10 8 6 5 3 5 5 5 5 4 3 4 6 8 11 13 15 17 20 21 20 24 23 23 20 22 23 20 16 17 16 18
24 25 26 25 24 25 19 15 14 11 11 10 9 8 6 5 1 2 7 8 7 7 7 9 12 13 17 20 22 23 23 20 21 24 23 22 24 26 22 20 18 18 19
24 27 29 28 25 25 19 17 14 11 10 10 10 10 9 7 5 2 5 8 9 9 9 10 13 17 21 23 22 20 20 17 19 24 23 26 27 28 20 17 17 19 19
23 27 29 28 28 25 20 18 16 12 12 10 12 11 10 10 8 4 2 6 7 7 10 14 17 19 21 21 21 22 18 18 18 21 25 29 28 23 15 15 19 20 16
24 23 24 25 26 25 23 19 15 14 12 11 10 9 9 8 6 5 4 5 8 13 14 16 17 20 23 24 23 20 19 19 24 28 27 27 18 12 16 18 21 17 15
23 22 23 22 24 26 24 22 17 16 15 14 11 10 10 6 6 5 4 6 8 11 13 14 18 21 21 22 16 17 18 20 23 22 20 14 12 16 17 20 16 17 19
21 22 23 22 24 24 24 22 18 18 17 15 11 13 16 12 11 10 10 12 11 13 15 18 18 18 21 13 11 13 15 17 17 15 16 16 17 16 16 15 14 16 15
25 24 25 25 24 25 25 23 20 19 18 12 11 13 12 11 11 11 12 14 14 16 19 17 17 19 12 8 12 13 15 15 15 15 14 13 13 13 13 14 12 15 16
25 25 25 25 26 26 27 26 22 22 18 11 12 14 15 13 16 16 15 14 15 18 18 14 16 14 7 10 12 12 15 19 14 9 12 14 13 14 17 11 11 14 19
22 24 27 30 29 29 29 28 24 24 16 11 12 13 12 14 15 14 14 14 16 17 14 15 16 11 11 13 13 14 15 21 20 18 13 10 9 11 13 13 12 13 15
20 22 24 29 33 32 29 28 26 24 14 13 14 13 13 11 11 12 13 15 19 15 14 15 15 13 13 15 13 13 16 23 22 19 18 16 13 14 8 10 13 14 14
21 23 24 26 31 36 37 25 28 21 17 14 14 14 13 14 14 13 14 17 16 13 15 17 17 13 14 13 11 12 16 22 19 17 15 15 10 8 8 9 9 10 13
18 22 23 27 28 35 34 28 26 19 17 15 17 15 17 17 15 15 15 15 12 14 17 15 5 6 9 8 10 12 17 18 16 14 14 12 13 13 13 14 14 14 13
17 19 21 27 28 28 29 19 22 19 18 18 17 18 18 17 15 12 12 12 13 14 6 4 7 7 5 7 10 12 15 15 16 13 12 12 14 15 15 17 18 19 18
19 17 21 22 26 23 19 20 22 20 20 17 15 17 15 13 9 10 10 12 7 4 5 7 7 7 8 10 13 11 12 12 13 11 12 15 15 15 16 18 22 21 18
20 17 17 22 25 26 26 21 21 19 17 15 14 15 15 11 8 7 8 5 4 7 10 12 12 11 10 10 13 12 11 11 12 13 14 15 15 18 23 25 24 21 18
20 17 15 24 23 23 23 18 22 19 15 13 13 13 8 8 6 4 5 6 7 9 8 8 9 11 11 12 13 12 13 13 16 18 19 18 20 26 29 27 23 21 20
18 17 16 25 18 24 26 23 23 20 21 18 15 12 9 8 6 6 6 7 9 8 8 8 10 10 13 11 10 11 14 17 16 15 17 23 27 29 28 25 23 21 20
19 21 15 22 28 27 25 23 18 21 17 15 16 14 11 8 7 6 10 11 12 10 10 9 9 11 11 8 11 16 17 15 16 21 24 25 25 28 27 24 22 20 19
22 24 18 20 28 27 24 21 24 18 16 18 16 14 11 7 7 5 5 8 8 8 8 8 8 10 12 15 16 17 16 18 22 24 23 26 26 27 25 22 19 17 12
21 22 15 24 24 20 27 24 21 18 17 17 16 13 9 7 6 9 8 5 7 8 6 6 9 12 14 15 16 18 21 23 23 25 27 27 25 25 19 15 11 8 9
22 19 19 32 29 35 30 24 21 19 19 20 17 12 9 7 10 7 4 7 8 5 5 8 11 13 14 16 19 22 24 25 27 28 27 25 23 20 14 12 12 12 11
23 21 23 35 40 36 33 26 23 21 21 18 14 11 9 10 8 5 6 8 7 7 10 11 12 14 16 18 22 25 27 28 29 29 29 26 23 18 14 13 12 11 9
27 24 35 39 38 34 29 26 22 21 21 18 15 11 10 9 5 5 6 7 7 9 10 12 13 15 17 20 22 24 26 28 29 28 26 24 19 14 11 9 10 7 10
22 38 43 40 35 30 24 22 24 23 23 19 15 11 9 5 4 5 6 6 8 9 9 11 13 16 18 21 22 24 27 27 25 23 21 17 12 9 8 9 8 10 10
42 41 36 29 26 25 25 26 25 25 22 16 12 8 5 3 3 4 4 5 7 8 10 12 14 17 19 20 22 25 27 25 23 23 21 11 7 7 9 9 6 6 8

GFSGL_850_spd_291.txt.gz
Wind_Speed
10 10 9 9 13 17 19 18 19 19 19 17 14 13 11 10 12 13 12 11 11 10 8 5 6 7 8 10 14 15 16 16 19 20 17 16 20 22 23 23 23 20 14
10 10 8 13 15 18 19 19 21 22 21 19 17 15 14 13 12 13 14 15 15 13 10 10 8 9 10 15 16 19 18 19 19 21 19 19 19 21 26 25 17 10 13
12 12 11 12 16 18 20 21 21 23 24 22 22 18 17 16 15 13 12 15 17 16 11 11 9 10 14 15 19 20 17 17 17 17 16 16 17 17 17 12 12 12 13
9 12 14 14 15 16 20 22 22 24 25 23 22 20 19 18 16 16 15 14 15 15 13 11 10 14 16 18 19 16 15 11 12 12 16 16 15 14 12 12 14 14 15
11 12 14 16 18 18 19 22 23 25 25 23 24 21 21 21 19 18 19 15 12 11 11 12 14 14 16 18 14 12 11 9 11 12 13 15 15 14 13 13 14 14 14
11 12 15 15 19 20 20 22 24 25 26 25 24 22 21 21 20 19 17 16 14 13 13 12 11 15 18 14 12 10 9 9 6 11 14 15 14 13 12 14 14 17 20
12 11 15 16 17 22 20 23 24 25 27 28 24 23 21 23 19 17 19 16 16 14 13 13 14 17 14 11 10 9 12 9 12 14 13 14 15 15 16 16 16 18 18
11 9 13 17 18 18 22 27 23 27 28 29 23 25 24 23 19 20 19 17 21 19 16 16 17 15 12 10 9 9 12 12 13 13 16 18 16 15 17 17 18 18 17
15 11 7 7 10 15 19 20 27 27 30 32 30 27 24 22 17 20 20 19 19 18 17 16 15 15 11 9 11 9 9 8 14 18 20 16 14 15 15 17 14 14 16
18 15 9 10 13 17 18 19 25 28 32 33 32 28 23 21 22 17 17 17 19 19 17 14 13 10 10 11 10 11 9 9 15 17 14 12 12 12 13 12 14 14 15
16 17 16 13 13 15 17 18 21 25 29 34 33 28 23 19 14 15 12 16 19 17 14 14 9 9 12 10 11 13 12 12 13 13 13 12 11 11 13 14 14 15 16
18 18 18 17 14 16 19 19 19 22 27 32 34 24 21 18 17 14 17 16 18 16 13 10 9 11 6 5 9 11 13 11 10 11 12 13 13 13 14 13 15 15 16
18 20 20 19 17 16 17 17 16 20 23 29 27 22 20 14 15 17 20 17 15 13 11 9 8 2 4 6 6 10 12 10 10 12 13 13 14 14 15 16 15 15 16
21 20 22 21 21 16 13 14 11 14 21 25 24 23 16 15 14 21 18 14 14 10 8 4 2 3 5 7 10 12 12 11 11 13 14 15 16 16 17 16 16 18 20
21 21 22 23 23 23 13 10 14 17 14 23 23 16 11 16 21 16 13 13 10 7 2 2 4 6 8 9 10 10 12 12 12 14 16 18 19 19 16 16 19 21 20
20 23 22 23 22 23 17 11 14 12 13 20 17 11 15 17 14 11 11 9 5 2 1 3 6 7 8 9 11 13 14 12 11 13 16 18 17 16 17 20 18 19 20
23 23 24 23 22 21 19 17 18 16 18 19 19 16 15 12 13 11 8 5 3 2 3 5 7 7 8 10 12 10 8 8 14 13 15 13 15 18 19 18 19 18 18
29 26 24 23 23 21 21 17 16 21 25 23 19 18 14 12 11 8 4 3 4 6 7 5 6 7 8 9 8 8 10 11 11 12 14 16 16 17 18 18 18 17 15
24 25 22 22 22 21 19 15 14 21 26 23 22 17 14 13 10 4 3 5 5 5 4 5 6 6 7 7 9 9 11 12 17 17 16 16 17 18 18 16 15 16 14
23 20 22 21 20 22 18 13 11 23 26 22 22 18 18 14 8 4 5 3 2 3 4 5 5 6 7 8 9 11 12 14 15 16 17 18 17 17 16 15 13 11 10
20 19 23 18 19 17 14 12 13 27 27 24 23 18 15 11 7 4 3 3 2 4 3 4 5 7 8 9 10 12 14 15 17 17 18 17 16 15 14 13 11 10 11
18 18 18 16 17 13 13 11 27 24 22 22 19 18 14 10 6 5 5 2 4 5 4 5 6 7 8 12 15 16 17 17 19 20 20 18 17 15 11 9 8 9 7
19 16 16 14 12 9 11 30 28 24 21 20 18 17 13 9 7 7 4 5 5 4 6 7 6 7 12 17 18 20 21 22 23 23 20 19 16 11 6 4 5 5 5
16 17 14 16 8 5 33 28 25 21 20 19 17 14 12 10 8 5 5 5 4 6 6 6 9 12 15 17 18 19 21 22 22 20 18 15 7 6 5 5 4 3 4
18 15 15 14 10 16 31 31 25 17 18 18 17 14 12 8 6 5 4 4 4 5 6 8 11 14 16 18 19 19 19 19 18 17 12 5 6 8 7 5 5 6 6
15 18 15 16 13 39 34 33 22 19 19 17 15 12 9 7 5 3 2 3 3 4 6 10 12 15 17 19 18 17 16 16 16 10 5 6 6 7 6 4 6 4 4